Tracking 27382 objects as of 4-Jun-2023
HD Live streaming from Space Station
objects crossing your sky now

THOR ABLESTAR DEB

Track THOR ABLESTAR DEB now!
10-day predictions


NORAD ID: 5808
Int'l Code: 1961-015KC
Perigee: 536.0 km
Apogee: 595.9 km
Inclination: 66.6 °
Period: 95.8 minutes
Semi major axis: 6936 km
RCS: 0.0039 m2 (small)
Launch date: June 29, 1961
Source: United States (US)
Launch site: AIR FORCE EASTERN TEST RANGE (AFETR)

Note: This is SATELLITE DEBRIS
Your satellite tracking list
Your tracking list is empty




NASA's NSSDC Master Catalog

Two Line Element Set (TLE):
1 05808U 61015KC  23155.12258412  .00012017  00000-0  89077-3 0  9990
2 05808  66.5877  76.2301 0043153 189.8850 170.1441 15.02621442238385
Source of the keplerian elements: AFSPC